[[{"header":{"parameterUnit":"m.s-1","parameterCategory":1,"la1":30.2991,"la2":30.254,"lo1":-89.0895,"lo2":-89.0444,"dy":0.0017,"dx":0.0017,"nx":28,"ny":28,"refTime":"2023-08-08T09:00:00:Z","depth":0,"parameterNumber":2,"parameterNumberName":"U-component_of_WINDS"},"data":[0,0,0,0,0,0,0,0,0,0,0,0,0,0,0,0,0,0,0,0,0,0,0,0,0,0,0,0,0,0,0,0,0,0,0,0,0,0,0,0,0,0,0,0,0,0,0,0,0,0,0,0,0,0,0,0,0,0,4.6233,4.6236,0,4.6458,4.6461,4.6463,4.6434,4.643,4.6426,4.6423,4.6657,4.6666,4.6676,0,0,0,0,0,0,0,0,0,0,0,0,0,4.5781,4.5789,4.6233,4.6236,4.6239,4.6458,4.6461,4.6464,4.6434,4.643,4.6425,4.6421,4.6654,4.6665,4.6677,0,0,0,0,0,0,0,0,0,0,0,0,0,4.5989,4.5792,4.6233,4.625,4.6254,4.6457,4.6461,4.6465,4.6435,4.643,4.6424,4.6419,4.665,4.6664,4.6678,4.6879,0,0,4.6723,4.6729,0,0,0,0,0,0,0,0,4.5977,4.6005,4.6245,4.6249,4.6254,4.6412,4.6387,4.6604,4.6437,4.6367,4.6423,4.6416,4.658,4.66,4.6655,4.689,4.69,4.6724,4.6733,4.6739,4.6743,0,0,0,0,0,0,0,4.5962,4.5995,4.6322,4.6248,4.6254,4.6248,4.6271,4.6428,4.6502,4.6372,4.6371,4.6397,4.6582,4.6641,4.666,4.6904,4.6724,4.6736,4.6745,4.6751,4.7315,4.7321,0,0,0,0,0,0,4.5943,4.5984,4.6315,4.6329,4.6099,4.626,4.6287,4.6367,4.65,4.6515,4.6402,4.6395,4.6618,4.6643,4.6668,4.6911,4.6739,4.6753,4.6761,4.7308,4.7316,4.7323,0,0,0,0,0,0,4.5933,4.5973,4.6306,4.6156,4.6198,4.6274,4.6365,4.6374,4.6433,4.6522,4.6536,4.6448,4.6615,4.6647,4.6826,4.6919,4.6759,4.6772,4.7301,4.7311,4.7319,4.7399,0,0,0,0,0,0,4.592,4.597,4.6046,4.6158,4.6206,4.646,4.637,4.6383,4.6458,4.6451,4.657,4.6584,4.6613,4.6805,4.6841,4.6936,4.6784,4.7293,4.7305,4.7316,4.7389,4.741,4.7429,0,0,0,0,0,4.5904,4.6061,4.605,4.609,4.6303,4.6466,4.6493,4.6522,4.6466,4.6543,4.6601,4.658,4.6903,4.6823,4.6864,4.6965,4.7287,4.7302,4.7316,4.738,4.7406,4.7428,0,0,0,0,0,0,4.596,4.6076,4.6065,4.6262,4.6354,4.646,4.6559,4.655,4.666,4.665,4.6682,4.671,4.689,4.6946,4.6855,4.7166,4.7088,4.711,4.7123,4.7148,4.7168,4.7151,4.6796,0,0,0,0,0,4.5995,4.6116,4.6211,4.6376,4.6422,4.6483,4.6555,4.6569,4.6666,4.6705,4.6776,4.6871,4.6994,4.7074,4.7192,4.7397,4.7422,4.7486,4.7506,4.7522,4.7541,4.7652,4.7681,4.7369,4.7369,4.7369,0,0,4.6069,4.6147,4.6222,4.6389,4.6462,4.6587,4.6516,4.6652,4.6745,4.6726,4.6899,4.6954,4.7063,4.7255,4.7343,4.7307,4.7633,4.754,4.7552,4.7563,4.767,4.7699,4.7725,4.7379,4.7377,4.7375,0,0,4.6267,4.6338,4.6483,4.6557,4.6667,4.6706,4.6741,4.6849,4.6884,4.7057,4.7045,4.7157,4.7368,4.7446,4.7513,4.774,4.7725,4.7778,4.7882,4.799,4.8014,4.8036,4.8116,4.8144,4.7796,4.7797,4.7797,0,4.6345,4.6532,4.6559,4.6696,4.6769,4.6756,4.6903,4.6974,4.7118,4.7169,4.7126,4.739,4.7462,4.7672,4.7727,4.7782,4.7823,4.7764,4.8008,4.8031,4.8051,4.8128,4.8158,4.7802,4.7802,4.7801,4.78,0,4.6622,4.6752,4.6856,4.6993,4.7078,4.722,4.7268,4.7352,4.7359,4.7402,4.7579,4.7665,4.78,4.7851,4.786,4.8062,4.8036,4.8,4.7922,4.8086,4.8159,4.8188,4.781,4.7808,4.7807,4.7805,0,0,4.6862,4.7011,4.7048,4.711,4.723,4.7332,4.7472,4.7602,4.7673,4.7773,4.7891,4.807,4.8037,4.8113,4.8131,4.8226,4.8398,4.8179,4.8182,4.8215,4.8625,4.865,4.8684,4.8389,4.8395,4.84,4.8615,0,4.7071,4.7318,4.7345,4.7566,4.7686,4.7675,4.7797,4.7884,4.7929,4.8038,4.8088,4.8213,4.8161,4.8207,4.83,4.8357,4.8481,4.8342,4.85,4.8505,4.8472,4.8722,4.8749,4.8949,4.8644,4.8649,4.8652,0,4.7348,4.7453,4.7685,4.7787,4.7839,4.7948,4.8069,4.8173,4.8272,4.8298,4.8382,4.8387,4.8533,4.8449,4.865,4.8555,4.8622,4.8659,4.8668,4.8683,4.8588,4.8743,4.9014,4.9043,4.8698,4.8694,4.8691,0,4.7498,4.7698,4.7862,4.7916,4.804,4.8116,4.8172,4.8265,4.8341,4.8447,4.8497,4.8619,4.8686,4.8781,4.8819,4.8755,4.9018,4.8938,4.9043,4.9043,4.9099,4.9095,4.9383,4.9143,4.9143,4.9142,4.9142,0,4.7728,4.787,4.7931,4.8032,4.8191,4.8222,4.8378,4.843,4.8513,4.8625,4.8623,4.8728,4.8772,4.8884,4.8915,4.9076,4.9107,4.9132,4.9138,4.9132,4.9128,4.9175,4.9162,4.915,4.9148,4.9147,4.9146,0,4.7923,4.797,4.8147,4.8249,4.8278,4.8391,4.8478,4.8576,4.8619,4.876,4.8795,4.8862,4.8994,4.9041,4.9202,4.9222,4.9409,4.9404,4.9375,4.9376,4.9479,4.9468,4.9806,4.9852,4.9583,4.9585,4.9588,0,4.8066,4.8175,4.8288,4.8361,4.8419,4.8538,4.8615,4.8649,4.8729,4.8849,4.8933,4.9063,4.9169,4.938,4.9444,4.9567,4.9565,4.9675,4.9583,4.9572,4.9565,4.9557,4.9568,4.9691,4.9694,4.9696,4.9698,0,4.8316,4.8333,4.8443,4.8561,4.8652,4.8748,4.884,4.8901,4.8949,4.904,4.9173,4.9255,4.9417,4.9547,4.9672,4.973,4.9723,4.9727,4.9757,4.9751,4.9729,4.9741,4.942,4.9719,4.9717,4.9715,4.9714,4.9713,4.8489,4.8584,4.8678,4.88,4.8873,4.8959,4.9055,4.9109,4.922,4.9354,4.9368,4.9511,4.9607,4.9774,4.9838,4.9951,4.9921,4.9966,4.9977,4.9987,4.9994,4.9711,4.9974,4.9973,4.9973,4.9973,4.9972,0,4.8737,4.8796,4.8908,4.9036,4.9133,4.9115,4.9216,4.9298,4.9424,4.9513,4.9616,4.9769,4.9894,4.9968,5.0093,5.017,5.017,5.0202,5.0196,5.0209,5.0014,4.9974,5.02,5.02,5.02,5.0199,5.0199,5.0199,4.8877,4.9037,4.9065,4.9261,4.932,4.9458,4.9517,4.9597,4.9668,4.9838,4.9941,4.9987,5.007,5.0201,5.0315,5.0334,5.038,5.0415,5.043,5.0247,5.0223,5.0201,5.0163,5.0425,5.0425,5.0616,5.0617,5.0619]},{"header":{"parameterUnit":"m.s-1","parameterCategory":1,"la1":30.2991,"la2":30.254,"lo1":-89.0895,"lo2":-89.0444,"dy":0.0017,"dx":0.0017,"nx":28,"ny":28,"refTime":"2023-08-08T09:00:00:Z","depth":0,"parameterNumber":3,"parameterNumberName":"V-component_of_WINDS"},"data":[0,0,0,0,0,0,0,0,0,0,0,0,0,0,0,0,0,0,0,0,0,0,0,0,0,0,0,0,0,0,0,0,0,0,0,0,0,0,0,0,0,0,0,0,0,0,0,0,0,0,0,0,0,0,0,0,0,0,0.1879,0.1879,0,0.1839,0.1839,0.1838,0.1797,0.1797,0.1796,0.1796,0.1757,0.1757,0.1756,0,0,0,0,0,0,0,0,0,0,0,0,0,0.1923,0.1922,0.1879,0.1879,0.1878,0.1839,0.1838,0.1838,0.1797,0.1797,0.1796,0.1795,0.1758,0.1757,0.1756,0,0,0,0,0,0,0,0,0,0,0,0,0,0.1895,0.1922,0.1879,0.1853,0.185,0.1839,0.1838,0.1838,0.1798,0.1797,0.1796,0.1795,0.1758,0.1757,0.1756,0.1769,0,0,0.1754,0.1754,0,0,0,0,0,0,0,0,0.1897,0.1894,0.1857,0.1855,0.1852,0.1822,0.184,0.1815,0.1798,0.1818,0.1796,0.1795,0.178,0.1777,0.1772,0.1767,0.1765,0.1754,0.1754,0.1753,0.1753,0,0,0,0,0,0,0,0.1899,0.1895,0.1863,0.1857,0.1853,0.1844,0.1839,0.1835,0.1804,0.1816,0.1813,0.1808,0.1778,0.1772,0.177,0.1765,0.1754,0.1753,0.1753,0.1753,0.1767,0.1768,0,0,0,0,0,0,0.1904,0.1897,0.1865,0.1862,0.1873,0.1844,0.1839,0.1833,0.1804,0.1799,0.1809,0.1807,0.1774,0.1771,0.1769,0.1781,0.1753,0.1753,0.1752,0.1767,0.1768,0.1769,0,0,0,0,0,0,0.1905,0.1902,0.1866,0.1879,0.1873,0.1844,0.1838,0.1832,0.1826,0.1799,0.1793,0.1809,0.1773,0.177,0.1769,0.1779,0.1752,0.1751,0.1766,0.1767,0.1768,0.1806,0,0,0,0,0,0,0.1907,0.1902,0.1906,0.1879,0.1873,0.1866,0.1838,0.1832,0.1825,0.1821,0.1797,0.1792,0.1772,0.177,0.1768,0.1778,0.1751,0.1765,0.1766,0.1768,0.1804,0.1809,0.1813,0,0,0,0,0,0.1909,0.1919,0.1907,0.1903,0.1877,0.1867,0.1863,0.1839,0.1826,0.183,0.1812,0.1793,0.1778,0.177,0.1768,0.1778,0.1764,0.1766,0.1768,0.1802,0.1808,0.1813,0,0,0,0,0,0,0.195,0.1915,0.1901,0.1903,0.1888,0.186,0.1864,0.1846,0.1835,0.1833,0.1804,0.1799,0.1801,0.1789,0.178,0.1788,0.1768,0.177,0.1796,0.1801,0.1805,0.1808,0.175,0,0,0,0,0,0.1959,0.1953,0.1923,0.1928,0.1921,0.1894,0.1889,0.1871,0.1855,0.1849,0.1831,0.1816,0.1808,0.1804,0.1795,0.1802,0.1796,0.1807,0.1812,0.1815,0.1817,0.182,0.1825,0.1775,0.1775,0.1775,0,0,0.1979,0.1959,0.1957,0.1936,0.1922,0.1917,0.1889,0.1885,0.1881,0.1848,0.1846,0.1832,0.1814,0.1817,0.1817,0.1807,0.183,0.1818,0.1821,0.1821,0.1823,0.1827,0.1832,0.1776,0.1776,0.1776,0,0,0.2011,0.1996,0.1998,0.1984,0.1963,0.1945,0.1946,0.192,0.1909,0.1906,0.1881,0.1876,0.1863,0.1851,0.1844,0.1871,0.1853,0.1869,0.1892,0.1895,0.1899,0.1903,0.1913,0.1917,0.187,0.1871,0.1871,0,0.2038,0.2029,0.2001,0.1998,0.199,0.1959,0.1961,0.195,0.1928,0.1923,0.1911,0.1894,0.1879,0.1879,0.1886,0.188,0.188,0.1872,0.1901,0.1904,0.1906,0.1916,0.192,0.1873,0.1872,0.1872,0.1872,0,0.2063,0.2057,0.2061,0.2039,0.2031,0.2031,0.2005,0.2,0.1983,0.1966,0.1963,0.1945,0.1932,0.193,0.1914,0.1927,0.1922,0.1906,0.1886,0.1914,0.1922,0.1925,0.1876,0.1875,0.1874,0.1874,0,0,0.2122,0.2084,0.2086,0.2076,0.205,0.2045,0.2043,0.2029,0.2026,0.2012,0.201,0.1999,0.1984,0.1975,0.1957,0.196,0.1983,0.1944,0.1943,0.1952,0.1997,0.201,0.2014,0.1971,0.1971,0.1972,0.1999,0,0.2151,0.2145,0.212,0.2122,0.2116,0.2086,0.2085,0.2069,0.2053,0.2046,0.2029,0.2022,0.2002,0.1997,0.1998,0.198,0.1992,0.1978,0.197,0.197,0.1976,0.2018,0.2032,0.2058,0.2002,0.2002,0.2003,0,0.2183,0.217,0.2171,0.2145,0.2142,0.2141,0.2126,0.2119,0.2101,0.2089,0.2079,0.2059,0.2056,0.2037,0.2033,0.2024,0.2019,0.201,0.201,0.2009,0.1989,0.2019,0.2066,0.207,0.2007,0.2007,0.2007,0,0.2227,0.2209,0.2207,0.2199,0.2168,0.2169,0.2156,0.2137,0.213,0.2117,0.2112,0.2099,0.2093,0.2084,0.2061,0.2049,0.206,0.2038,0.205,0.2051,0.2055,0.2055,0.2102,0.2051,0.2051,0.2051,0.2051,0,0.2262,0.2264,0.2226,0.2225,0.2227,0.2198,0.22,0.2185,0.2168,0.2164,0.2138,0.2135,0.2104,0.2098,0.208,0.2079,0.2077,0.2068,0.2063,0.207,0.2072,0.2067,0.2065,0.2052,0.2051,0.2051,0.2051,0,0.2311,0.2285,0.2281,0.2252,0.2245,0.2247,0.2223,0.2221,0.2203,0.2198,0.2196,0.2168,0.2159,0.2135,0.212,0.2108,0.2113,0.2104,0.2119,0.2116,0.213,0.2129,0.2176,0.2181,0.2126,0.2127,0.2127,0,0.2335,0.2335,0.2306,0.2301,0.2289,0.2282,0.2274,0.2246,0.2239,0.2218,0.2219,0.2208,0.2197,0.2185,0.2164,0.2152,0.2143,0.216,0.2141,0.2149,0.2144,0.2144,0.2144,0.2165,0.2166,0.2166,0.2167,0,0.2381,0.2368,0.2357,0.2343,0.2334,0.2321,0.2307,0.2305,0.2273,0.2267,0.2257,0.2249,0.2233,0.2223,0.2208,0.2196,0.2176,0.2173,0.2175,0.2183,0.2192,0.2187,0.2131,0.2172,0.2171,0.2171,0.2171,0.2171,0.2418,0.2417,0.2396,0.2386,0.2372,0.2359,0.2356,0.2337,0.2328,0.2312,0.2296,0.2288,0.227,0.2247,0.2236,0.223,0.222,0.2223,0.2224,0.2225,0.2229,0.2192,0.2227,0.2227,0.2227,0.2227,0.2227,0,0.2463,0.2448,0.2438,0.2418,0.241,0.2391,0.2374,0.2369,0.2362,0.2346,0.2336,0.2324,0.2314,0.2292,0.2279,0.2278,0.2269,0.2276,0.2276,0.2274,0.2239,0.2238,0.2284,0.2284,0.2284,0.2284,0.2284,0.2284,0.2485,0.2483,0.2468,0.2458,0.2443,0.2434,0.2426,0.2414,0.2401,0.2389,0.238,0.2365,0.2347,0.2333,0.2322,0.2316,0.2313,0.2323,0.2314,0.2282,0.2276,0.2271,0.2271,0.2322,0.2322,0.235,0.235,0.235]}]]